When you browse on this site, cookies collect data to enhance your experience and personalize the content and advertising you see.
Visit our Privacy Policy to learn more. By continuing to use the site, you agree to this use of cookies and data.
  • In France
  • List of Countries
  • For 7 days
  • Water Temperature
  • Satellite Maps
  • Weather Map
  • Weather Widgets
  • user-avatar
    Login

    Hourly Weather Batina

    Today, 20 November, Tuesday

    Time Temperature Precipitation Wind Pressure Humidity
    00:00 +7°C° 0 mm 4 mps 661 mmHg 80%
    01:00 +7°C° 0 mm 4 mps 661 mmHg 80%
    02:00 +6°C° 0 mm 4 mps 661 mmHg 80%
    03:00 +6°C° 0 mm 4 mps 661 mmHg 80%
    04:00 +6°C° 0 mm 4 mps 661 mmHg 80%
    05:00 +6°C° 0 mm 4 mps 661 mmHg 80%
    06:00 +6°C° 0 mm 4 mps 662 mmHg 80%
    07:00 +7°C° 0.2 mm 5 mps 662 mmHg 78%
    08:00 +7°C° 0.2 mm 5 mps 663 mmHg 76%
    09:00 +8°C° 0.2 mm 5 mps 664 mmHg 75%
    10:00 +8°C° 0.1 mm 5 mps 664 mmHg 71%
    11:00 +9°C° 0.1 mm 5 mps 665 mmHg 68%
    12:00 +10°C° 0.1 mm 5 mps 665 mmHg 64%
    13:00 +10°C° 0 mm 5 mps 666 mmHg 62%
    14:00 +10°C° 0 mm 5 mps 666 mmHg 60%
    15:00 +12°C° 0 mm 5 mps 666 mmHg 58%
    16:00 +11°C° 0 mm 4 mps 666 mmHg 61%
    17:00 +10°C° 0 mm 4 mps 666 mmHg 63%
    18:00 +9°C° 0 mm 3 mps 666 mmHg 66%
    19:00 +9°C° 0 mm 3 mps 667 mmHg 64%
    20:00 +9°C° 0 mm 3 mps 667 mmHg 63%
    21:00 +9°C° 0 mm 3 mps 668 mmHg 61%
    22:00 +8°C° 0 mm 3 mps 668 mmHg 61%
    23:00 +8°C° 0 mm 3 mps 668 mmHg 60%

    Tomorrow, 21 November, Wednesday

    Time Temperature Precipitation Wind Pressure Humidity
    00:00 +8°C° 0 mm 3 mps 668 mmHg 60%
    01:00 +8°C° 0 mm 3 mps 668 mmHg 61%
    02:00 +8°C° 0 mm 3 mps 668 mmHg 62%
    03:00 +8°C° 0 mm 3 mps 668 mmHg 63%
    04:00 +7°C° 0 mm 2 mps 669 mmHg 65%
    05:00 +7°C° 0 mm 2 mps 669 mmHg 66%
    06:00 +7°C° 0 mm 2 mps 669 mmHg 68%
    07:00 +8°C° 0 mm 3 mps 670 mmHg 61%
    08:00 +10°C° 0 mm 3 mps 671 mmHg 53%
    09:00 +12°C° 0 mm 3 mps 672 mmHg 45%
    10:00 +13°C° 0 mm 4 mps 672 mmHg 43%
    11:00 +13°C° 0 mm 4 mps 672 mmHg 41%
    12:00 +14°C° 0 mm 4 mps 672 mmHg 39%
    13:00 +14°C° 0 mm 4 mps 672 mmHg 38%
    14:00 +14°C° 0 mm 4 mps 672 mmHg 38%
    15:00 +14°C° 0 mm 4 mps 672 mmHg 37%
    16:00 +13°C° 0 mm 3 mps 672 mmHg 41%
    17:00 +13°C° 0 mm 2 mps 672 mmHg 45%
    18:00 +10°C° 0 mm 2 mps 672 mmHg 49%
    19:00 +10°C° 0 mm 2 mps 672 mmHg 49%
    20:00 +10°C° 0 mm 2 mps 673 mmHg 48%
    21:00 +10°C° 0 mm 2 mps 673 mmHg 48%
    22:00 +9°C° 0 mm 2 mps 673 mmHg 49%
    23:00 +9°C° 0 mm 2 mps 672 mmHg 50%

    Day after tomorrow, 22 November, Thursday

    Time Temperature Precipitation Wind Pressure Humidity
    00:00 +9°C° 0 mm 2 mps 672 mmHg 50%
    01:00 +9°C° 0 mm 2 mps 672 mmHg 51%
    02:00 +9°C° 0 mm 2 mps 672 mmHg 52%
    03:00 +9°C° 0 mm 2 mps 672 mmHg 53%
    04:00 +9°C° 0 mm 2 mps 672 mmHg 54%
    05:00 +9°C° 0 mm 2 mps 672 mmHg 54%
    06:00 +9°C° 0 mm 2 mps 672 mmHg 55%
    07:00 +10°C° 0 mm 2 mps 673 mmHg 50%
    08:00 +13°C° 0 mm 2 mps 674 mmHg 45%
    09:00 +14°C° 0 mm 2 mps 674 mmHg 39%
    10:00 +14°C° 0 mm 3 mps 674 mmHg 36%
    11:00 +16°C° 0 mm 3 mps 674 mmHg 33%
    12:00 +17°C° 0 mm 4 mps 674 mmHg 30%
    13:00 +17°C° 0 mm 4 mps 674 mmHg 31%
    14:00 +17°C° 0 mm 4 mps 674 mmHg 32%
    15:00 +15°C° 0 mm 4 mps 674 mmHg 32%
    16:00 +14°C° 0 mm 3 mps 673 mmHg 37%
    17:00 +13°C° 0 mm 3 mps 673 mmHg 42%
    18:00 +12°C° 0 mm 2 mps 673 mmHg 47%
    19:00 +12°C° 0 mm 2 mps 673 mmHg 48%
    20:00 +10°C° 0 mm 2 mps 673 mmHg 49%
    21:00 +10°C° 0 mm 2 mps 673 mmHg 50%
    22:00 +10°C° 0 mm 2 mps 673 mmHg 50%
    23:00 +9°C° 0 mm 2 mps 673 mmHg 50%

    23 November, Friday

    Time Temperature Precipitation Wind Pressure Humidity
    00:00 +9°C° 0 mm 2 mps 673 mmHg 49%
    01:00 +9°C° 0 mm 2 mps 673 mmHg 49%
    02:00 +8°C° 0 mm 2 mps 672 mmHg 49%
    03:00 +8°C° 0 mm 2 mps 672 mmHg 49%
    04:00 +8°C° 0 mm 2 mps 672 mmHg 49%
    05:00 +7°C° 0 mm 2 mps 672 mmHg 49%
    06:00 +7°C° 0 mm 2 mps 672 mmHg 49%
    07:00 +9°C° 0 mm 2 mps 673 mmHg 44%
    08:00 +12°C° 0 mm 2 mps 674 mmHg 39%
    09:00 +13°C° 0 mm 3 mps 674 mmHg 35%
    10:00 +14°C° 0 mm 3 mps 674 mmHg 33%
    11:00 +14°C° 0 mm 4 mps 674 mmHg 31%
    12:00 +15°C° 0 mm 5 mps 674 mmHg 30%
    13:00 +15°C° 0 mm 4 mps 673 mmHg 31%
    14:00 +15°C° 0 mm 4 mps 673 mmHg 32%
    15:00 +15°C° 0 mm 4 mps 673 mmHg 34%
    16:00 +14°C° 0 mm 4 mps 672 mmHg 38%
    17:00 +12°C° 0 mm 3 mps 672 mmHg 42%
    18:00 +12°C° 0 mm 2 mps 672 mmHg 47%
    19:00 +12°C° 0 mm 2 mps 672 mmHg 48%
    20:00 +10°C° 0 mm 2 mps 672 mmHg 50%
    21:00 +10°C° 0 mm 2 mps 672 mmHg 51%
    22:00 +10°C° 0 mm 2 mps 672 mmHg 53%
    23:00 +10°C° 0 mm 2 mps 672 mmHg 54%

    24 November, Saturday

    Time Temperature Precipitation Wind Pressure Humidity
    00:00 +10°C° 0 mm 2 mps 672 mmHg 56%
    01:00 +10°C° 0 mm 3 mps 672 mmHg 56%
    02:00 +10°C° 0 mm 3 mps 672 mmHg 56%
    03:00 +10°C° 0 mm 3 mps 672 mmHg 56%
    04:00 +10°C° 0 mm 2 mps 672 mmHg 57%
    05:00 +10°C° 0 mm 2 mps 672 mmHg 57%
    06:00 +10°C° 0 mm 2 mps 672 mmHg 57%
    07:00 +12°C° 0 mm 2 mps 672 mmHg 53%
    08:00 +13°C° 0 mm 1 mps 673 mmHg 49%
    09:00 +15°C° 0 mm 1 mps 674 mmHg 45%
    10:00 +16°C° 0 mm 1 mps 674 mmHg 42%
    11:00 +16°C° 0 mm 2 mps 674 mmHg 40%
    12:00 +17°C° 0 mm 2 mps 673 mmHg 37%
    13:00 +17°C° 0 mm 2 mps 673 mmHg 40%
    14:00 +16°C° 0 mm 2 mps 672 mmHg 42%
    15:00 +16°C° 0 mm 2 mps 672 mmHg 44%
    16:00 +15°C° 0 mm 2 mps 672 mmHg 48%
    17:00 +15°C° 0 mm 1 mps 672 mmHg 51%
    18:00 +14°C° 0 mm 1 mps 672 mmHg 54%
    19:00 +14°C° 0.1 mm 1 mps 672 mmHg 56%
    20:00 +13°C° 0.1 mm 1 mps 672 mmHg 57%
    21:00 +13°C° 0.1 mm 1 mps 672 mmHg 59%
    22:00 +13°C° 0 mm 1 mps 671 mmHg 60%
    23:00 +12°C° 0 mm 1 mps 671 mmHg 60%

    25 November, Sunday

    Time Temperature Precipitation Wind Pressure Humidity
    00:00 +12°C° 0 mm 1 mps 671 mmHg 61%
    01:00 +12°C° 0 mm 1 mps 670 mmHg 62%
    02:00 +12°C° 0 mm 1 mps 670 mmHg 63%
    03:00 +11°C° 0 mm 1 mps 670 mmHg 64%
    04:00 +11°C° 0 mm 1 mps 669 mmHg 65%
    05:00 +11°C° 0 mm 1 mps 669 mmHg 66%
    06:00 +11°C° 0 mm 1 mps 668 mmHg 68%
    07:00 +12°C° 0 mm 1 mps 669 mmHg 64%
    08:00 +13°C° 0 mm 1 mps 669 mmHg 60%
    09:00 +14°C° 0 mm 2 mps 670 mmHg 57%
    10:00 +14°C° 0.3 mm 2 mps 669 mmHg 59%
    11:00 +14°C° 0.3 mm 2 mps 669 mmHg 61%
    12:00 +14°C° 0.3 mm 2 mps 668 mmHg 63%
    13:00 +13°C° 0.5 mm 2 mps 668 mmHg 66%
    14:00 +13°C° 0.5 mm 2 mps 668 mmHg 69%
    15:00 +12°C° 0.5 mm 2 mps 667 mmHg 72%
    16:00 +12°C° 0.8 mm 2 mps 667 mmHg 76%
    17:00 +10°C° 0.8 mm 2 mps 667 mmHg 79%
    18:00 +10°C° 0.8 mm 2 mps 667 mmHg 82%
    19:00 +10°C° 0.7 mm 2 mps 667 mmHg 83%
    20:00 +10°C° 0.7 mm 3 mps 667 mmHg 83%
    21:00 +9°C° 0.7 mm 3 mps 668 mmHg 84%
    22:00 +9°C° 0.1 mm 3 mps 667 mmHg 84%
    23:00 +9°C° 0.1 mm 3 mps 667 mmHg 84%
    Show more